Location: Bois de la Silve
(44.4667°N, 6.7833°E)
Time: 08:18:35
(UTC+00:00)

ATLAS 5 CENTAUR R/B - Pass Details

Date: 14 July 2020
Orbit: 273 x 14305 km, 60.7° (Epoch: 14 August)

Event Time Altitude Azimuth Distance (km) Brightness Sun altitude
Rises 02:43:15 0° 305° (NW) 2,781 5.3 -11.6°
Reaches altitude 10° 02:44:46 10° 295° (WNW) 2,232 4.7 -11.5°
Maximum altitude 02:49:16 38° 226° (SW) 1,930 4.1 -10.9°
Drops below altitude 10° 03:03:41 10° 167° (SSE) 7,137 7.2 -9.1°
Sets 03:13:56 0° 163° (SSE) 10,514 8.1 -7.7°
